Некрасовка

Россия / Московская область     55°42′10″N   37°55′40″E
темп.,
°C
ветер,
м/с
пор.,
м/с
влажн.,
%
обл.,
%
осадки,
мм/ч
давл.,
гПа
погр.,
м
19 апреля, пн
пн1900:00+7св3972100 0.0 1023680
03:00+7св4978100 0.1 1023638
06:00+6всв51184100 0.0 1023602
09:00+7всв587199 0.0 1023721
12:00+10всв685398 0.0 10231132
15:00+11всв6846100 0.0 10231571
18:00+9всв6952100 0.0 10231416
21:00+7в61051100 0.0 10241179
20 апреля, вт
вт2000:00+6в5951100 0.0 10231150
03:00+4всв5116695 0.1 1023844
06:00+3в51165100 0.0 1022624
09:00+4в596881 0.0 1022724
12:00+5в6972100 0.2 1021962
15:00+3всв51193100 1.1 1019634
18:00+2всв51395100 0.9 1017621
21:00+3в51496100 2.3 1013881
21 апреля, ср
ср2100:00+3всв61596100 5.2 1008860
03:00+2всв61597100 11.0 1004765
06:00+4всв51493100 1.1 1000803
09:00+6в51296100 5.9 997711
12:00+4ю4696100 4.1 999527
15:00+4зюз61184100 4.8 1004971
18:00+4юз51083100 0.0 10081130
21:00+4ююз41089100 0.0 1010494
22 апреля, чт
чт2200:00+4ю4119299 0.3 1011391
03:00+4ююз31191100 0.3 1012439
06:00+4ююз41091100 0.0 1013424
09:00+7юз478167 0.0 1014647
12:00+11юз575911 0.0 10151342
15:00+13ююз465659 0.3 10151496
18:00+12ююз476766 1.1 1016885
21:00+9ю388548 1.4 1016214
23 апреля, пт
пт2300:00+8ю311878 0.0 1017319
03:00+7ю3109068 0.0 1017245
06:00+7ю3118785 0.0 1016312
09:00+12ю5116860 0.0 1016617
12:00+16ю610495 0.0 10151700
15:00+16ю684687 0.4 10132140
18:00+15ююв51053100 0.0 10121157
21:00+12ююв6136682 0.0 1011819